Home > Weather > Rathenow > Past weeks

Flag for Germany Past Weather in Rathenow, Brandenburg, Germany — Yesterday and Last 2 Weeks

Now
66 °F

Passing clouds.


Feels Like: 66 °F
Forecast: 59 / 75 °F
Wind: 3 mph from West

Location: Berlin-Tegel

Current Time: Jul 27, 2016 at 11:21:40 PM

Latest Report: Jul 27, 2016 at 10:50 PM


Visibility: 5 mi

Pressure: 29.95 "Hg

Humidity: 88%

Dew Point: 63 °F

Location of RathenowLocation

Past Weather in Rathenow — Graph

°F

Rathenow Temperature Yesterday

Maximum temperature yesterday: 82 °F (at 2:20 PM)
Minimum temperature yesterday: 64 °F (at 5:50 AM)
Average temperature yesterday: 74 °F

High & Low Weather Summary for the Past Weeks

 TemperatureHumidityPressure
High88 °F (Jul 25, 2:20 PM)94% (Jul 13, 11:20 AM)30.24 "Hg (Jul 13, 11:20 AM)
Low48 °F (Jul 16, 5:20 AM)13% (Jul 22, 2:50 PM)29.83 "Hg (Jul 12, 10:20 PM)
Average69 °F62%30.05 "Hg
* Reported Jul 12 10:20 PM — Jul 27 10:20 PM, Rathenow, Weather by CustomWeather, © 2016

Note: Actual official high and low records may vary slightly from our data, if they occured in-between our weather recording intervals... More about our weather records

Advertising

Rathenow Weather History for the Previous 24 Hours

Scroll right to see more
 ConditionsComfort  
Time TempWeatherWind HumidityBarometerVisibility
10:20 PM
Wed, Jul 27
66 °FPassing clouds.2 mph88%29.95 "Hg5 mi
9:50 PM66 °FPartly sunny.5 mph88%29.95 "Hg5 mi
9:20 PM66 °FScattered clouds.7 mph88%29.95 "HgN/A
8:50 PM66 °FScattered clouds.5 mph88%29.95 "HgN/A
8:20 PM66 °FBroken clouds.3 mph88%29.95 "HgN/A
7:50 PM68 °FMostly cloudy.1 mph88%29.95 "HgN/A
7:20 PM66 °FPartly sunny.3 mph88%29.95 "HgN/A
6:50 PM66 °FBroken clouds.2 mph88%29.95 "HgN/A
6:20 PM66 °FBroken clouds.5 mph88%29.95 "HgN/A
5:50 PM66 °FBroken clouds.5 mph88%29.95 "HgN/A
5:20 PM66 °FSprinkles. Broken clouds.6 mph88%29.95 "HgN/A
4:50 PM66 °FThunderstorms. Partly sunny.6 mph94%29.95 "Hg6 mi
4:20 PM66 °FThunderstorms. Partly sunny.7 mph88%29.98 "Hg6 mi
3:50 PM70 °FThunderstorms. Partly sunny.7 mph73%29.95 "HgN/A
3:20 PM73 °FThunderstorms. Broken clouds.6 mph61%29.95 "HgN/A
2:50 PM73 °FBroken clouds.7 mph61%29.95 "HgN/A
2:20 PM73 °FSprinkles. Broken clouds.10 mph61%29.95 "HgN/A
1:50 PM72 °FBroken clouds.12 mph65%29.98 "HgN/A
1:20 PM75 °FBroken clouds.3 mph57%29.98 "HgN/A
12:50 PM75 °FPartly sunny.5 mph61%30.01 "HgN/A
12:20 PM75 °FPartly sunny.10 mph57%30.01 "HgN/A
11:50 AM75 °FPartly sunny.12 mph54%30.01 "HgN/A
11:20 AM75 °FPartly sunny.13 mph54%30.01 "HgN/A
10:50 AM75 °FBroken clouds.13 mph54%30.04 "HgN/A
10:20 AM73 °FPassing clouds.13 mph50%30.04 "HgN/A
9:50 AM73 °FPassing clouds.12 mph50%30.04 "HgN/A
9:20 AM73 °FSunny.12 mph44%30.04 "Hg10 mi
8:50 AM72 °FSunny.12 mph47%30.04 "Hg10 mi
8:20 AM70 °FPassing clouds.10 mph50%30.04 "HgN/A
7:50 AM68 °FPassing clouds.9 mph53%30.04 "HgN/A
7:20 AM66 °FPassing clouds.8 mph60%30.04 "HgN/A
6:50 AM66 °FPassing clouds.6 mph64%30.07 "HgN/A
6:20 AM64 °FScattered clouds.7 mph68%30.07 "HgN/A
5:50 AM63 °FPassing clouds.6 mph73%30.07 "HgN/A
5:20 AM63 °FPassing clouds.5 mph73%30.07 "HgN/A
4:50 AM63 °FPassing clouds.5 mph73%30.07 "HgN/A
4:20 AM64 °FPassing clouds.3 mph64%30.07 "HgN/A
3:50 AM64 °FPassing clouds.5 mph64%30.09 "HgN/A
3:20 AM64 °FPassing clouds.5 mph64%30.09 "HgN/A
2:50 AM64 °FPassing clouds.5 mph64%30.09 "HgN/A
2:20 AM66 °FPassing clouds.6 mph60%30.09 "HgN/A
1:50 AM66 °FPassing clouds.7 mph64%30.09 "HgN/A
1:20 AM66 °FPassing clouds.7 mph64%30.09 "HgN/A
12:50 AM68 °FPassing clouds.6 mph60%30.09 "HgN/A
12:20 AM68 °FPassing clouds.6 mph64%30.09 "HgN/A
11:50 PM
Tue, Jul 26
70 °FPassing clouds.5 mph64%30.09 "HgN/A
11:20 PM70 °FPassing clouds.6 mph64%30.09 "HgN/A
Weather by CustomWeather, © 2016

See weather overviewHow to use our weather pages